OCEANSAT-2

Last updated on Wed Sep 17 2025 00:02:30 GMT+0000 (Coordinated Universal Time)

1 35931U 09051A 25259.54637369 -.00000031 00000+0 44097-5 0 9995 2 35931 98.2259 268.9691 0015422 292.1332 67.8198 13.99611348841057
UTC large
Height (km)
Speed (km/s)
/
Latitude / Longitude
Inclination (degrees)
Orbital Period (minutes)
Azimuth
Elevation
Range (km)
Doppler Factor

Next 0 passes for location: London (51.5072 / 0.1276)

Sorry there are no passes over London.